Regional Weather Roundup
Issued by NWS

Home | Current Version | Previous Version | Text Only | Print | Product List | Glossary On
Versions: 1 2 3 4 5 6 7 8 9 10 11 12 13 14 15 16 17 18 19 20 21 22 23 24 25 26 27 28 29 30 31 32 33 34 35 36 37 38 39 40 41 42 43 44 45 46 47 48 49 50
000
ASUS43 KLSX 172257
RWRMO

WEATHER SUMMARY FOR MISSOURI
NATIONAL WEATHER SERVICE SPRINGFIELD MO
500 PM CST FRI NOV 17 2017

NOTE: "FAIR" INDICATES FEW OR NO CLOUDS BELOW 12,000 FEET WITH NO
       SIGNIFICANT WEATHER AND/OR OBSTRUCTIONS TO VISIBILITY.
       CURRENT SKY AND/OR WEATHER CONDITIONS ARE NOT AVAILABLE FOR
       CHILLICOTHE AND FARMINGTON.

MOZ001>031-035>038-043-044-053-054-180000-
...NORTHERN AND WESTERN MISSOURI...

CITY           SKY/WX    TMP DP  RH WIND       PRES   REMARKS
KANSAS CTY INT CLOUDY    62  57  83 S8        29.49F
ST JOSEPH      CLEAR     61  57  87 E6        29.49S FOG
CHILLICOTHE      N/A     57  56  96 SE3       29.53F

$$
MOZ066>068-077>081-088>096-101>105-180000-
...SOUTHWEST MISSOURI...

CITY           SKY/WX    TMP DP  RH WIND       PRES   REMARKS
SPRINGFIELD    CLOUDY    67  60  78 S15       29.61F
JOPLIN         PTCLDY    71  63  75 S17       29.57F
BRANSON        CLOUDY    66  59  77 S15       29.68S

$$
MOZ032>034-039>042-045>050-055>058-069>072-180000-
...CENTRAL MISSOURI...

CITY           SKY/WX    TMP DP  RH WIND       PRES   REMARKS
COLUMBIA       NOT AVBL
JEFFERSON CITY CLOUDY    65  56  72 S16       29.59F
ROLLA          CLOUDY    61  56  83 S13G23    29.67R
SEDALIA        CLOUDY    65  60  84 S15       29.55F
WARRENSBURG    CLOUDY    66  59  77 S9G16     29.53R

$$
MOZ051-052-059>065-180000-
...EAST CENTRAL MISSOURI...

CITY           SKY/WX    TMP DP  RH WIND       PRES   REMARKS
ST LOUIS INTL  CLOUDY    55  47  74 SE17G24   29.70F

$$
MOZ072>076-082>087-097>100-106>115-180000-
...SOUTH CENTRAL AND SOUTHEAST MISSOURI...

CITY           SKY/WX    TMP DP  RH WIND       PRES   REMARKS
CAPE GIRARDEAU CLOUDY    60  47  61 SE16G28   29.78F
POPLAR BLUFF   CLOUDY    65  57  75 S10       29.76F
WEST PLAINS    CLOUDY    61  58  90 S13       29.72F

$$


USA.gov is the U.S. government's official web portal to all federal, state and local government web resources and services.